User: anonymous   Login
Location: NJAA Observatory
(40.6819°N, 74.8979°W)
Time: 04:20:13
(UTC-04:00)
Language:

Cosmos 2082 - Orbit

View from above orbital plane
View from above orbital plane
View from above satellite
View from above satellite

Ground track
Ground track

The orbit data is extracted from the following two-line orbital elements,

1 20624U 90046A   16273.55069997  .00000015  00000-0  32319-4 0  9990
2 20624  71.0408  40.0805 0013104  61.4088 298.8351 14.14201400360348
Epoch (UTC): 29 September 2016 13:13:00
Eccentricity: 0.0013104
inclination: 71.0408°
perigee height: 835 km
apogee height: 854 km
right ascension of ascending node: 40.0805°
argument of perigee: 61.4088°
revolutions per day: 14.14201400
mean anomaly at epoch: 298.8351°
orbit number at epoch: 36034

The dashed part of the orbit path shows where the satellite is in the earth's shadow,  

DLR